Simultaneous Nadir Overpasses (SNOs) Predictions

Prediction of SNOs between GOES-16 and LANDSAT-8 Satellite Orbit:

Table of predicted SNOs for the next 14.0 days since TLE Epoch: 2/4/2023
Index Date Time (GOES-16) GOES-16 Lat,Lon LANDSAT-8 Lat,Lon Distance(km) Time Diff (sec)
1 02/04/2023 15:06:52 0.02, -75.20 -0.27, -73.95 142.41 80
2 02/05/2023 03:30:56 -0.02, -75.19 -0.84, -79.14 449.12 80
3 02/06/2023 14:54:40 0.02, -75.21 -0.89, -70.99 479.94 80
4 02/07/2023 03:18:44 -0.03, -75.20 -0.21, -76.18 111.43 80
5 02/09/2023 03:03:51 -0.03, -75.22 0.37, -73.22 227.07 80
6 02/09/2023 15:25:07 0.03, -75.24 0.69, -78.38 357.15 80
7 02/11/2023 15:15:34 0.03, -75.26 0.09, -75.42 18.35 80
8 02/13/2023 15:03:22 0.03, -75.29 -0.58, -72.47 321.17 80
9 02/14/2023 03:24:46 -0.03, -75.28 -0.51, -77.66 269.65 80
10 02/16/2023 03:09:53 -0.03, -75.31 0.13, -74.70 69.73 80
